• In Deutschland
  • Länderverzeichnis
  • Für 7 Tage
  • Wassertemperatur
  • Satellitenkarten
  • Wetterkarte
  • Widgets
  • user-avatar
    Anmelden

    Stündliche Wetter Lihomoste

    Heute, 21 September, Freitag

    Zeit Temperatur Niederschläge Wind Luftdruck Luftfeuchtigkeit
    00:00 +16°C° 0 mm 1 m/S 745 mmHg 87%
    01:00 +16°C° 0 mm 1 m/S 745 mmHg 87%
    02:00 +15°C° 0 mm 1 m/S 745 mmHg 88%
    03:00 +15°C° 0 mm 1 m/S 746 mmHg 89%
    04:00 +15°C° 0 mm 1 m/S 746 mmHg 89%
    05:00 +15°C° 0 mm 1 m/S 746 mmHg 90%
    06:00 +16°C° 0 mm 1 m/S 746 mmHg 87%
    07:00 +19°C° 0 mm 1 m/S 746 mmHg 83%
    08:00 +20°C° 0 mm 1 m/S 746 mmHg 79%
    09:00 +22°C° 0 mm 1 m/S 747 mmHg 74%
    10:00 +24°C° 0 mm 2 m/S 747 mmHg 70%
    11:00 +25°C° 0 mm 2 m/S 747 mmHg 65%
    12:00 +26°C° 0 mm 2 m/S 746 mmHg 62%
    13:00 +26°C° 0 mm 2 m/S 746 mmHg 60%
    14:00 +27°C° 0 mm 2 m/S 746 mmHg 58%
    15:00 +26°C° 0 mm 2 m/S 746 mmHg 62%
    16:00 +25°C° 0 mm 2 m/S 745 mmHg 67%
    17:00 +24°C° 0 mm 2 m/S 745 mmHg 72%
    18:00 +21°C° 0 mm 2 m/S 745 mmHg 76%
    19:00 +20°C° 0 mm 2 m/S 745 mmHg 80%
    20:00 +18°C° 0 mm 2 m/S 745 mmHg 83%
    21:00 +18°C° 0 mm 2 m/S 745 mmHg 84%
    22:00 +17°C° 0 mm 2 m/S 745 mmHg 85%
    23:00 +17°C° 0 mm 2 m/S 745 mmHg 86%

    Morgen, 22 September, Samstag

    Zeit Temperatur Niederschläge Wind Luftdruck Luftfeuchtigkeit
    00:00 +17°C° 0 mm 3 m/S 744 mmHg 86%
    01:00 +16°C° 0 mm 3 m/S 744 mmHg 86%
    02:00 +16°C° 0 mm 3 m/S 744 mmHg 86%
    03:00 +16°C° 0 mm 3 m/S 744 mmHg 85%
    04:00 +16°C° 0 mm 3 m/S 744 mmHg 84%
    05:00 +14°C° 0 mm 3 m/S 743 mmHg 83%
    06:00 +17°C° 0 mm 4 m/S 743 mmHg 79%
    07:00 +18°C° 0 mm 4 m/S 743 mmHg 75%
    08:00 +19°C° 0 mm 5 m/S 743 mmHg 71%
    09:00 +21°C° 0 mm 5 m/S 742 mmHg 66%
    10:00 +22°C° 0 mm 6 m/S 742 mmHg 60%
    11:00 +24°C° 0 mm 6 m/S 742 mmHg 54%
    12:00 +26°C° 0 mm 6 m/S 741 mmHg 52%
    13:00 +26°C° 0 mm 6 m/S 741 mmHg 49%
    14:00 +26°C° 0 mm 6 m/S 740 mmHg 47%
    15:00 +25°C° 0 mm 5 m/S 740 mmHg 51%
    16:00 +23°C° 0 mm 5 m/S 739 mmHg 55%
    17:00 +22°C° 0 mm 4 m/S 739 mmHg 59%
    18:00 +20°C° 0.2 mm 4 m/S 739 mmHg 65%
    19:00 +16°C° 0.2 mm 5 m/S 739 mmHg 71%
    20:00 +14°C° 0.2 mm 5 m/S 739 mmHg 77%
    21:00 +13°C° 0.2 mm 5 m/S 739 mmHg 81%
    22:00 +12°C° 0.2 mm 5 m/S 740 mmHg 84%
    23:00 +9°C° 0.2 mm 5 m/S 740 mmHg 87%

    übermorgen, 23 September, Sonntag

    Zeit Temperatur Niederschläge Wind Luftdruck Luftfeuchtigkeit
    00:00 +9°C° 0.9 mm 5 m/S 740 mmHg 88%
    01:00 +8°C° 0.9 mm 5 m/S 740 mmHg 89%
    02:00 +7°C° 0.9 mm 5 m/S 740 mmHg 90%
    03:00 +7°C° 1.7 mm 4 m/S 739 mmHg 91%
    04:00 +7°C° 1.7 mm 4 m/S 739 mmHg 93%
    05:00 +8°C° 1.7 mm 3 m/S 739 mmHg 94%
    06:00 +8°C° 0.9 mm 3 m/S 739 mmHg 93%
    07:00 +9°C° 0.9 mm 3 m/S 739 mmHg 93%
    08:00 +9°C° 0.9 mm 3 m/S 739 mmHg 92%
    09:00 +10°C° 0.3 mm 4 m/S 739 mmHg 89%
    10:00 +11°C° 0.3 mm 4 m/S 739 mmHg 85%
    11:00 +12°C° 0.3 mm 4 m/S 739 mmHg 81%
    12:00 +12°C° 0.3 mm 4 m/S 739 mmHg 77%
    13:00 +13°C° 0.3 mm 4 m/S 739 mmHg 73%
    14:00 +14°C° 0.3 mm 5 m/S 739 mmHg 69%
    15:00 +13°C° 0.3 mm 4 m/S 739 mmHg 72%
    16:00 +12°C° 0.3 mm 4 m/S 739 mmHg 75%
    17:00 +12°C° 0.3 mm 3 m/S 739 mmHg 79%
    18:00 +11°C° 0.1 mm 3 m/S 739 mmHg 82%
    19:00 +9°C° 0.1 mm 3 m/S 740 mmHg 85%
    20:00 +8°C° 0.1 mm 3 m/S 740 mmHg 88%
    21:00 +8°C° 0 mm 3 m/S 740 mmHg 89%
    22:00 +8°C° 0 mm 3 m/S 740 mmHg 90%
    23:00 +7°C° 0 mm 3 m/S 740 mmHg 91%

    24 September, Montag

    Zeit Temperatur Niederschläge Wind Luftdruck Luftfeuchtigkeit
    00:00 +7°C° 0 mm 3 m/S 741 mmHg 92%
    01:00 +7°C° 0 mm 3 m/S 741 mmHg 93%
    02:00 +7°C° 0 mm 3 m/S 741 mmHg 94%
    03:00 +5°C° 0 mm 3 m/S 741 mmHg 94%
    04:00 +5°C° 0 mm 3 m/S 741 mmHg 95%
    05:00 +6°C° 0 mm 2 m/S 740 mmHg 96%
    06:00 +7°C° 0 mm 3 m/S 740 mmHg 92%
    07:00 +8°C° 0 mm 3 m/S 740 mmHg 89%
    08:00 +8°C° 0 mm 3 m/S 740 mmHg 86%
    09:00 +10°C° 0 mm 3 m/S 739 mmHg 79%
    10:00 +11°C° 0 mm 4 m/S 739 mmHg 73%
    11:00 +13°C° 0 mm 4 m/S 739 mmHg 67%
    12:00 +12°C° 0.1 mm 5 m/S 738 mmHg 67%
    13:00 +11°C° 0.1 mm 6 m/S 737 mmHg 67%
    14:00 +11°C° 0.1 mm 7 m/S 736 mmHg 68%
    15:00 +10°C° 1.4 mm 7 m/S 735 mmHg 75%
    16:00 +9°C° 1.4 mm 7 m/S 734 mmHg 82%
    17:00 +8°C° 1.4 mm 6 m/S 733 mmHg 88%
    18:00 +8°C° 1.9 mm 7 m/S 732 mmHg 89%
    19:00 +8°C° 1.9 mm 7 m/S 730 mmHg 90%
    20:00 +9°C° 1.9 mm 7 m/S 729 mmHg 91%
    21:00 +10°C° 1.6 mm 8 m/S 728 mmHg 91%
    22:00 +11°C° 1.6 mm 8 m/S 726 mmHg 92%
    23:00 +12°C° 1.6 mm 8 m/S 725 mmHg 92%

    25 September, Dienstag

    Zeit Temperatur Niederschläge Wind Luftdruck Luftfeuchtigkeit
    00:00 +11°C° 0.3 mm 7 m/S 724 mmHg 91%
    01:00 +10°C° 0.3 mm 7 m/S 724 mmHg 90%
    02:00 +9°C° 0.3 mm 6 m/S 723 mmHg 89%
    03:00 +8°C° 0.2 mm 6 m/S 723 mmHg 89%
    04:00 +8°C° 0.2 mm 6 m/S 722 mmHg 90%
    05:00 +7°C° 0.2 mm 6 m/S 722 mmHg 90%
    06:00 +7°C° 0.4 mm 5 m/S 722 mmHg 90%
    07:00 +7°C° 0.4 mm 5 m/S 722 mmHg 91%
    08:00 +7°C° 0.4 mm 5 m/S 722 mmHg 92%
    09:00 +7°C° 0.5 mm 4 m/S 722 mmHg 91%
    10:00 +8°C° 0.5 mm 4 m/S 723 mmHg 91%
    11:00 +8°C° 0.5 mm 4 m/S 723 mmHg 91%
    12:00 +8°C° 0.8 mm 5 m/S 724 mmHg 91%
    13:00 +7°C° 0.8 mm 5 m/S 724 mmHg 91%
    14:00 +7°C° 0.8 mm 6 m/S 725 mmHg 91%
    15:00 +6°C° 0.7 mm 7 m/S 726 mmHg 89%
    16:00 +5°C° 0.7 mm 8 m/S 727 mmHg 88%
    17:00 +5°C° 0.7 mm 10 m/S 728 mmHg 87%
    18:00 +5°C° 0.3 mm 10 m/S 728 mmHg 86%
    19:00 +3°C° 0.3 mm 10 m/S 729 mmHg 85%
    20:00 +3°C° 0.3 mm 10 m/S 730 mmHg 84%
    21:00 +3°C° 0.1 mm 9 m/S 731 mmHg 82%
    22:00 +2°C° 0.1 mm 9 m/S 732 mmHg 81%
    23:00 +2°C° 0.1 mm 8 m/S 732 mmHg 79%

    26 September, Mittwoch

    Zeit Temperatur Niederschläge Wind Luftdruck Luftfeuchtigkeit
    00:00 +2°C° 0.1 mm 8 m/S 733 mmHg 79%
    01:00 +1°C° 0.1 mm 8 m/S 734 mmHg 79%
    02:00 +1°C° 0.1 mm 8 m/S 734 mmHg 78%
    03:00 +2°C° 0 mm 7 m/S 735 mmHg 78%
    04:00 +2°C° 0 mm 7 m/S 735 mmHg 78%
    05:00 0°C° 0 mm 7 m/S 736 mmHg 77%
    06:00 +2°C° 0 mm 7 m/S 737 mmHg 75%
    07:00 +2°C° 0 mm 7 m/S 737 mmHg 73%
    08:00 +2°C° 0 mm 7 m/S 738 mmHg 71%
    09:00 +3°C° 0 mm 7 m/S 738 mmHg 68%
    10:00 +4°C° 0 mm 7 m/S 739 mmHg 65%
    11:00 +5°C° 0 mm 7 m/S 740 mmHg 63%
    12:00 +5°C° 0 mm 6 m/S 740 mmHg 63%
    13:00 +5°C° 0 mm 6 m/S 741 mmHg 63%
    14:00 +7°C° 0 mm 6 m/S 742 mmHg 63%
    15:00 +6°C° 0 mm 5 m/S 742 mmHg 64%
    16:00 +6°C° 0 mm 5 m/S 743 mmHg 65%
    17:00 +6°C° 0 mm 4 m/S 743 mmHg 67%
    18:00 +5°C° 0 mm 4 m/S 744 mmHg 69%
    19:00 +4°C° 0 mm 4 m/S 745 mmHg 72%
    20:00 +3°C° 0 mm 4 m/S 745 mmHg 74%
    21:00 +3°C° 0 mm 3 m/S 746 mmHg 76%
    22:00 +3°C° 0 mm 3 m/S 746 mmHg 79%
    23:00 +2°C° 0 mm 3 m/S 747 mmHg 81%
    Mehr zeigen